{"data":{"norad_id":56218,"epoch":"2026-07-09T16:13:07.229568Z","epoch_age_seconds":6479219,"freshness":"OLD","line1":"1 56218U 23054AS  26190.67577812  .05573141  25021-5  44112-3 0  9993","line2":"2 56218  97.2713 113.1846 0009463 220.6541 139.4053 16.40084651182842","mean_motion":16.40084651,"eccentricity":0.0009463,"inclination_deg":97.2713,"raan_deg":113.1846,"arg_perigee_deg":220.6541,"mean_anomaly_deg":139.4053,"bstar":0.00044112,"rev_number":18284,"period_min":87.800346105428,"perigee_km":159.38501569834,"apogee_km":171.76964944417,"semimajor_km":6543.7143325713,"source":"CELESTRAK","updated_at":"2026-07-11T09:00:24.088991Z"}}